Location: Bathsheba
(13.2167°N, 59.5167°W)
Time: 23:38:10
(UTC+00:00)

OAO 3 Copernicus - Pass Details

Date: 18 September 2020
Orbit: 694 x 705 km, 35.0° (Epoch: 20 October)

Event Time Altitude Azimuth Distance (km) Brightness Sun altitude
Rises 23:33:01 0° 305° (NW) 3,063 8.6 -24.2°
Reaches altitude 10° 23:35:25 10° 306° (NW) 2,147 7.6 -24.8°
Enters shadow 23:40:16 81° 349° (NNW) 708 4.2 -26.0°
